Location: Bois de la Silve
(44.4667°N, 6.7833°E)
Time: 08:43:31
(UTC+00:00)

Cosmos 407 Rocket - Pass Details

Date: 14 July 2020
Orbit: 744 x 786 km, 74.0° (Epoch: 14 August)

Event Time Altitude Azimuth Distance (km) Brightness Sun altitude
Exits shadow 00:55:10 41° 161° (SSE) 1,123 4.0 -21.6°
Maximum altitude 00:56:45 58° 106° (ESE) 915 3.8 -21.5°
Drops below altitude 10° 01:02:00 10° 28° (NNE) 2,355 7.2 -21.2°
Sets 01:04:26 0° 25° (NNE) 3,286 8.3 -21.1°
